Orbital Elements at Epoch 2459000.5 (2020-May-31.0) TDB
Reference: JPL 41 (heliocentric ecliptic J2000)
Element | Value | Uncertainty (1-sigma) | Units |
e | .2075367307449858 | 2.6279e-08 | |
a | 2.43851268037551 | 9.3155e-09 | au |
q | 1.932431730810185 | 6.544e-08 | au |
i | 3.368922467690604 | 3.6111e-06 | deg |
node | 93.4737078954558 | 5.8263e-05 | deg |
peri | 226.8992651060666 | 5.9093e-05 | deg |
M | 139.8375188424757 | 1.1356e-05 | deg |
tp | 2458460.234589980063 (2018-Dec-07.73458998) | 4.2672e-05 | TDB |
period | 1390.868124786117 3.81 | 7.97e-06 2.182e-08 | d yr |
n | .2588311527056957 | 1.4832e-09 | deg/d |
Q | 2.944593629940836 | 1.1249e-08 | au |
|
| | Orbit Determination Parameters
Additional Information
|